Location: Dunedin
(45.8670°S, 170.5000°E)
Time: 10:12:58
(UTC+13:00)

Meteor 1-25 Rocket - Pass Details

Date: 24 January 2019
Orbit: 836 x 892 km, 81.2° (Epoch: 21 October)

Event Time Altitude Azimuth Distance (km) Brightness Sun altitude
Rises 23:10:30 0° 190° (S) 3,521 8.5 -15.6°
Reaches altitude 10° 23:12:59 10° 187° (S) 2,582 7.6 -15.8°
Maximum altitude 23:18:52 70° 103° (ESE) 956 4.4 -16.5°
Enters shadow 23:22:19 26° 24° (NNE) 1,698 5.2 -16.8°
